Data supplied by UK-AIR on 27/11/2015
All Data GMT hour ending 
Status: R =Ratified P=Provisional,P*=As supplied
,,High Muffles,,,,,,,,,,,,,,,,,,,,,,,
Date,time,"Nitric oxide",status,unit,"Nitrogen dioxide",status,unit,"Nitrogen oxides as nitrogen dioxide",status,unit,"Ozone",status,unit
 
01-01-2012,01:00,0.00000,R,ugm-3,5.20000,R,ugm-3,5.20000,R,ugm-3,62.00000,R,ugm-3
01-01-2012,02:00,0.50000,R,ugm-3,4.40000,R,ugm-3,5.20000,R,ugm-3,62.00000,R,ugm-3
01-01-2012,03:00,0.50000,R,ugm-3,4.40000,R,ugm-3,5.20000,R,ugm-3,62.00000,R,ugm-3
01-01-2012,04:00,0.00000,R,ugm-3,5.00000,R,ugm-3,5.00000,R,ugm-3,56.00000,R,ugm-3
01-01-2012,05:00,0.40000,R,ugm-3,5.00000,R,ugm-3,5.50000,R,ugm-3,60.00000,R,ugm-3
01-01-2012,06:00,0.40000,R,ugm-3,5.90000,R,ugm-3,6.50000,R,ugm-3,60.00000,R,ugm-3
01-01-2012,07:00,0.40000,R,ugm-3,7.10000,R,ugm-3,7.70000,R,ugm-3,56.00000,R,ugm-3
01-01-2012,08:00,0.40000,R,ugm-3,6.50000,R,ugm-3,7.10000,R,ugm-3,54.00000,R,ugm-3
01-01-2012,09:00,1.10000,R,ugm-3,7.10000,R,ugm-3,8.80000,R,ugm-3,54.00000,R,ugm-3
01-01-2012,10:00,0.40000,R,ugm-3,6.50000,R,ugm-3,7.10000,R,ugm-3,60.00000,R,ugm-3
01-01-2012,11:00,0.40000,R,ugm-3,5.90000,R,ugm-3,6.50000,R,ugm-3,62.00000,R,ugm-3
01-01-2012,12:00,0.40000,R,ugm-3,7.70000,R,ugm-3,8.20000,R,ugm-3,58.00000,R,ugm-3
01-01-2012,13:00,0.00000,R,ugm-3,7.10000,R,ugm-3,7.10000,R,ugm-3,58.00000,R,ugm-3
01-01-2012,14:00,0.40000,R,ugm-3,5.00000,R,ugm-3,5.50000,R,ugm-3,66.00000,R,ugm-3
01-01-2012,15:00,0.00000,R,ugm-3,5.00000,R,ugm-3,5.00000,R,ugm-3,70.00000,R,ugm-3
01-01-2012,16:00,0.70000,R,ugm-3,4.40000,R,ugm-3,5.50000,R,ugm-3,68.00000,R,ugm-3
01-01-2012,17:00,0.40000,R,ugm-3,5.00000,R,ugm-3,5.50000,R,ugm-3,66.00000,R,ugm-3
01-01-2012,18:00,0.50000,R,ugm-3,5.70000,R,ugm-3,6.50000,R,ugm-3,66.00000,R,ugm-3
01-01-2012,19:00,0.70000,R,ugm-3,6.50000,R,ugm-3,7.70000,R,ugm-3,62.00000,R,ugm-3
01-01-2012,20:00,0.70000,R,ugm-3,5.40000,R,ugm-3,6.50000,R,ugm-3,60.00000,R,ugm-3
01-01-2012,21:00,0.00000,R,ugm-3,6.50000,R,ugm-3,6.50000,R,ugm-3,54.00000,R,ugm-3
01-01-2012,22:00,1.10000,R,ugm-3,5.40000,R,ugm-3,7.10000,R,ugm-3,52.00000,R,ugm-3
01-01-2012,23:00,1.10000,R,ugm-3,4.20000,R,ugm-3,5.90000,R,ugm-3,62.00000,R,ugm-3
01-01-2012,24:00,0.70000,R,ugm-3,3.80000,R,ugm-3,5.00000,R,ugm-3,64.00000,R,ugm-3
02-01-2012,01:00,1.00000,R,ugm-3,2.90000,R,ugm-3,4.40000,R,ugm-3,66.00000,R,ugm-3
02-01-2012,02:00,1.00000,R,ugm-3,3.60000,R,ugm-3,5.20000,R,ugm-3,66.00000,R,ugm-3
02-01-2012,03:00,0.70000,R,ugm-3,3.80000,R,ugm-3,5.00000,R,ugm-3,64.00000,R,ugm-3
02-01-2012,04:00,1.10000,R,ugm-3,2.70000,R,ugm-3,4.40000,R,ugm-3,66.00000,R,ugm-3
02-01-2012,05:00,0.00000,R,ugm-3,5.00000,R,ugm-3,5.00000,R,ugm-3,62.00000,R,ugm-3
02-01-2012,06:00,0.00000,R,ugm-3,7.10000,R,ugm-3,7.10000,R,ugm-3,52.00000,R,ugm-3
02-01-2012,07:00,0.70000,R,ugm-3,6.50000,R,ugm-3,7.70000,R,ugm-3,54.00000,R,ugm-3
02-01-2012,08:00,1.50000,R,ugm-3,4.20000,R,ugm-3,6.50000,R,ugm-3,62.00000,R,ugm-3
02-01-2012,09:00,0.40000,R,ugm-3,6.50000,R,ugm-3,7.10000,R,ugm-3,60.00000,R,ugm-3
02-01-2012,10:00,1.10000,R,ugm-3,7.10000,R,ugm-3,8.80000,R,ugm-3,54.00000,R,ugm-3
02-01-2012,11:00,1.10000,R,ugm-3,5.40000,R,ugm-3,7.10000,R,ugm-3,62.00000,R,ugm-3
02-01-2012,12:00,0.70000,R,ugm-3,4.80000,R,ugm-3,5.90000,R,ugm-3,68.00000,R,ugm-3
02-01-2012,13:00,0.40000,R,ugm-3,5.90000,R,ugm-3,6.50000,R,ugm-3,66.00000,R,ugm-3
02-01-2012,14:00,0.70000,R,ugm-3,4.40000,R,ugm-3,5.50000,R,ugm-3,68.00000,R,ugm-3
02-01-2012,15:00,0.40000,R,ugm-3,5.00000,R,ugm-3,5.50000,R,ugm-3,66.00000,R,ugm-3
02-01-2012,16:00,0.40000,R,ugm-3,5.00000,R,ugm-3,5.50000,R,ugm-3,66.00000,R,ugm-3
02-01-2012,17:00,0.40000,R,ugm-3,5.40000,R,ugm-3,5.90000,R,ugm-3,68.00000,R,ugm-3
02-01-2012,18:00,0.70000,R,ugm-3,5.40000,R,ugm-3,6.50000,R,ugm-3,66.00000,R,ugm-3
02-01-2012,19:00,0.70000,R,ugm-3,5.40000,R,ugm-3,6.50000,R,ugm-3,68.00000,R,ugm-3
02-01-2012,20:00,0.00000,R,ugm-3,7.70000,R,ugm-3,7.70000,R,ugm-3,62.00000,R,ugm-3
02-01-2012,21:00,0.70000,R,ugm-3,8.20000,R,ugm-3,9.40000,R,ugm-3,62.00000,R,ugm-3
02-01-2012,22:00,1.10000,R,ugm-3,13.00000,R,ugm-3,14.70000,R,ugm-3,48.00000,R,ugm-3
02-01-2012,23:00,0.40000,R,ugm-3,15.30000,R,ugm-3,15.90000,R,ugm-3,46.00000,R,ugm-3
02-01-2012,24:00,1.10000,R,ugm-3,11.50000,R,ugm-3,13.20000,R,ugm-3,48.00000,R,ugm-3
03-01-2012,01:00,0.50000,R,ugm-3,10.10000,R,ugm-3,10.90000,R,ugm-3,48.00000,R,ugm-3
03-01-2012,02:00,1.50000,R,ugm-3,7.80000,R,ugm-3,10.10000,R,ugm-3,54.00000,R,ugm-3
03-01-2012,03:00,0.40000,R,ugm-3,9.80000,R,ugm-3,10.30000,R,ugm-3,52.00000,R,ugm-3
03-01-2012,04:00,0.40000,R,ugm-3,9.80000,R,ugm-3,10.30000,R,ugm-3,54.00000,R,ugm-3
03-01-2012,05:00,1.10000,R,ugm-3,8.60000,R,ugm-3,10.30000,R,ugm-3,58.00000,R,ugm-3
03-01-2012,06:00,0.00000,R,ugm-3,10.30000,R,ugm-3,10.30000,R,ugm-3,60.00000,R,ugm-3
03-01-2012,07:00,0.40000,R,ugm-3,6.50000,R,ugm-3,7.10000,R,ugm-3,64.00000,R,ugm-3
03-01-2012,08:00,0.40000,R,ugm-3,7.10000,R,ugm-3,7.70000,R,ugm-3,66.00000,R,ugm-3
03-01-2012,09:00,0.00000,R,ugm-3,6.10000,R,ugm-3,6.10000,R,ugm-3,70.00000,R,ugm-3
03-01-2012,10:00,0.70000,R,ugm-3,3.30000,R,ugm-3,4.40000,R,ugm-3,74.00000,R,ugm-3
03-01-2012,11:00,1.10000,R,ugm-3,3.80000,R,ugm-3,5.50000,R,ugm-3,72.00000,R,ugm-3
03-01-2012,12:00,0.70000,R,ugm-3,3.30000,R,ugm-3,4.40000,R,ugm-3,72.00000,R,ugm-3
03-01-2012,13:00,1.10000,R,ugm-3,2.70000,R,ugm-3,4.40000,R,ugm-3,70.00000,R,ugm-3
03-01-2012,14:00,0.00000,R,ugm-3,3.80000,R,ugm-3,3.80000,R,ugm-3,70.00000,R,ugm-3
03-01-2012,15:00,0.70000,R,ugm-3,2.70000,R,ugm-3,3.80000,R,ugm-3,70.00000,R,ugm-3
03-01-2012,16:00,0.70000,R,ugm-3,3.80000,R,ugm-3,5.00000,R,ugm-3,70.00000,R,ugm-3
03-01-2012,17:00,0.70000,R,ugm-3,3.80000,R,ugm-3,5.00000,R,ugm-3,72.00000,R,ugm-3
03-01-2012,18:00,0.40000,R,ugm-3,3.80000,R,ugm-3,4.40000,R,ugm-3,74.00000,R,ugm-3
03-01-2012,19:00,0.70000,R,ugm-3,3.80000,R,ugm-3,5.00000,R,ugm-3,72.00000,R,ugm-3
03-01-2012,20:00,0.70000,R,ugm-3,3.30000,R,ugm-3,4.40000,R,ugm-3,68.00000,R,ugm-3
03-01-2012,21:00,0.00000,R,ugm-3,4.40000,R,ugm-3,4.40000,R,ugm-3,70.00000,R,ugm-3
03-01-2012,22:00,0.70000,R,ugm-3,3.30000,R,ugm-3,4.40000,R,ugm-3,68.00000,R,ugm-3
03-01-2012,23:00,0.00000,R,ugm-3,4.40000,R,ugm-3,4.40000,R,ugm-3,66.00000,R,ugm-3
03-01-2012,24:00,0.70000,R,ugm-3,3.30000,R,ugm-3,4.40000,R,ugm-3,70.00000,R,ugm-3
04-01-2012,01:00,0.50000,R,ugm-3,3.60000,R,ugm-3,4.40000,R,ugm-3,72.00000,R,ugm-3
04-01-2012,02:00,1.00000,R,ugm-3,2.90000,R,ugm-3,4.40000,R,ugm-3,72.00000,R,ugm-3
04-01-2012,03:00,0.70000,R,ugm-3,3.30000,R,ugm-3,4.40000,R,ugm-3,74.00000,R,ugm-3
04-01-2012,04:00,0.40000,R,ugm-3,3.80000,R,ugm-3,4.40000,R,ugm-3,76.00000,R,ugm-3
04-01-2012,05:00,1.10000,R,ugm-3,2.70000,R,ugm-3,4.40000,R,ugm-3,76.00000,R,ugm-3
04-01-2012,06:00,1.10000,R,ugm-3,2.70000,R,ugm-3,4.40000,R,ugm-3,72.00000,R,ugm-3
04-01-2012,07:00,1.10000,R,ugm-3,2.70000,R,ugm-3,4.40000,R,ugm-3,68.00000,R,ugm-3
04-01-2012,08:00,0.00000,R,ugm-3,4.40000,R,ugm-3,4.40000,R,ugm-3,66.00000,R,ugm-3
04-01-2012,09:00,0.70000,R,ugm-3,3.30000,R,ugm-3,4.40000,R,ugm-3,64.00000,R,ugm-3
04-01-2012,10:00,0.00000,R,ugm-3,4.40000,R,ugm-3,4.40000,R,ugm-3,64.00000,R,ugm-3
04-01-2012,11:00,0.40000,R,ugm-3,3.80000,R,ugm-3,4.40000,R,ugm-3,66.00000,R,ugm-3
04-01-2012,12:00,0.70000,R,ugm-3,4.40000,R,ugm-3,5.50000,R,ugm-3,70.00000,R,ugm-3
04-01-2012,13:00,0.40000,R,ugm-3,4.40000,R,ugm-3,5.00000,R,ugm-3,70.00000,R,ugm-3
04-01-2012,14:00,0.70000,R,ugm-3,4.40000,R,ugm-3,5.50000,R,ugm-3,70.00000,R,ugm-3
04-01-2012,15:00,0.00000,R,ugm-3,5.50000,R,ugm-3,5.50000,R,ugm-3,70.00000,R,ugm-3
04-01-2012,16:00,0.70000,R,ugm-3,4.80000,R,ugm-3,5.90000,R,ugm-3,68.00000,R,ugm-3
04-01-2012,17:00,1.10000,R,ugm-3,4.80000,R,ugm-3,6.50000,R,ugm-3,70.00000,R,ugm-3
04-01-2012,18:00,0.40000,R,ugm-3,4.40000,R,ugm-3,5.00000,R,ugm-3,70.00000,R,ugm-3
04-01-2012,19:00,0.40000,R,ugm-3,4.40000,R,ugm-3,5.00000,R,ugm-3,70.00000,R,ugm-3
04-01-2012,20:00,1.10000,R,ugm-3,3.80000,R,ugm-3,5.50000,R,ugm-3,70.00000,R,ugm-3
04-01-2012,21:00,1.10000,R,ugm-3,4.20000,R,ugm-3,5.90000,R,ugm-3,70.00000,R,ugm-3
04-01-2012,22:00,0.00000,R,ugm-3,4.40000,R,ugm-3,4.40000,R,ugm-3,70.00000,R,ugm-3
04-01-2012,23:00,0.40000,R,ugm-3,3.80000,R,ugm-3,4.40000,R,ugm-3,70.00000,R,ugm-3
04-01-2012,24:00,0.70000,R,ugm-3,3.30000,R,ugm-3,4.40000,R,ugm-3,72.00000,R,ugm-3
05-01-2012,01:00,0.00000,R,ugm-3,4.40000,R,ugm-3,4.40000,R,ugm-3,78.00000,R,ugm-3
05-01-2012,02:00,1.00000,R,ugm-3,2.90000,R,ugm-3,4.40000,R,ugm-3,74.00000,R,ugm-3
05-01-2012,03:00,0.70000,R,ugm-3,3.30000,R,ugm-3,4.40000,R,ugm-3,72.00000,R,ugm-3
05-01-2012,04:00,0.70000,R,ugm-3,3.30000,R,ugm-3,4.40000,R,ugm-3,68.00000,R,ugm-3
05-01-2012,05:00,0.40000,R,ugm-3,3.80000,R,ugm-3,4.40000,R,ugm-3,60.00000,R,ugm-3
05-01-2012,06:00,0.00000,R,ugm-3,4.40000,R,ugm-3,4.40000,R,ugm-3,58.00000,R,ugm-3
05-01-2012,07:00,0.40000,R,ugm-3,3.80000,R,ugm-3,4.40000,R,ugm-3,56.00000,R,ugm-3
05-01-2012,08:00,0.00000,R,ugm-3,4.40000,R,ugm-3,4.40000,R,ugm-3,60.00000,R,ugm-3
05-01-2012,09:00,0.70000,R,ugm-3,3.30000,R,ugm-3,4.40000,R,ugm-3,62.00000,R,ugm-3
05-01-2012,10:00,1.10000,R,ugm-3,2.70000,R,ugm-3,4.40000,R,ugm-3,66.00000,R,ugm-3
05-01-2012,11:00,0.70000,R,ugm-3,3.80000,R,ugm-3,5.00000,R,ugm-3,70.00000,R,ugm-3
05-01-2012,12:00,0.70000,R,ugm-3,4.40000,R,ugm-3,5.50000,R,ugm-3,68.00000,R,ugm-3
05-01-2012,13:00,,,,,,,,,,,,
05-01-2012,14:00,1.90000,R,ugm-3,5.90000,R,ugm-3,8.80000,R,ugm-3,62.00000,R,ugm-3
05-01-2012,15:00,1.50000,R,ugm-3,4.80000,R,ugm-3,7.10000,R,ugm-3,64.00000,R,ugm-3
05-01-2012,16:00,0.70000,R,ugm-3,7.70000,R,ugm-3,8.80000,R,ugm-3,60.00000,R,ugm-3
05-01-2012,17:00,0.70000,R,ugm-3,7.70000,R,ugm-3,8.80000,R,ugm-3,54.00000,R,ugm-3
05-01-2012,18:00,0.70000,R,ugm-3,7.70000,R,ugm-3,8.80000,R,ugm-3,54.00000,R,ugm-3
05-01-2012,19:00,0.70000,R,ugm-3,7.10000,R,ugm-3,8.20000,R,ugm-3,54.00000,R,ugm-3
05-01-2012,20:00,0.70000,R,ugm-3,6.50000,R,ugm-3,7.70000,R,ugm-3,58.00000,R,ugm-3
05-01-2012,21:00,1.10000,R,ugm-3,6.50000,R,ugm-3,8.20000,R,ugm-3,58.00000,R,ugm-3
05-01-2012,22:00,1.10000,R,ugm-3,4.80000,R,ugm-3,6.50000,R,ugm-3,58.00000,R,ugm-3
05-01-2012,23:00,1.10000,R,ugm-3,5.40000,R,ugm-3,7.10000,R,ugm-3,58.00000,R,ugm-3
05-01-2012,24:00,0.70000,R,ugm-3,5.40000,R,ugm-3,6.50000,R,ugm-3,60.00000,R,ugm-3
06-01-2012,01:00,1.00000,R,ugm-3,2.90000,R,ugm-3,4.40000,R,ugm-3,62.00000,R,ugm-3
06-01-2012,02:00,1.50000,R,ugm-3,2.10000,R,ugm-3,4.40000,R,ugm-3,60.00000,R,ugm-3
06-01-2012,03:00,1.10000,R,ugm-3,2.70000,R,ugm-3,4.40000,R,ugm-3,60.00000,R,ugm-3
06-01-2012,04:00,0.00000,R,ugm-3,2.30000,R,ugm-3,2.30000,R,ugm-3,58.00000,R,ugm-3
06-01-2012,05:00,0.40000,R,ugm-3,2.30000,R,ugm-3,2.90000,R,ugm-3,58.00000,R,ugm-3
06-01-2012,06:00,1.10000,R,ugm-3,1.70000,R,ugm-3,3.40000,R,ugm-3,58.00000,R,ugm-3
06-01-2012,07:00,1.10000,R,ugm-3,0.60000,R,ugm-3,2.30000,R,ugm-3,58.00000,R,ugm-3
06-01-2012,08:00,0.70000,R,ugm-3,1.10000,R,ugm-3,2.30000,R,ugm-3,58.00000,R,ugm-3
06-01-2012,09:00,0.70000,R,ugm-3,2.30000,R,ugm-3,3.40000,R,ugm-3,58.00000,R,ugm-3
06-01-2012,10:00,1.10000,R,ugm-3,2.70000,R,ugm-3,4.40000,R,ugm-3,56.00000,R,ugm-3
06-01-2012,11:00,0.70000,R,ugm-3,2.70000,R,ugm-3,3.80000,R,ugm-3,58.00000,R,ugm-3
06-01-2012,12:00,0.70000,R,ugm-3,3.30000,R,ugm-3,4.40000,R,ugm-3,56.00000,R,ugm-3
06-01-2012,13:00,1.50000,R,ugm-3,2.70000,R,ugm-3,5.00000,R,ugm-3,56.00000,R,ugm-3
06-01-2012,14:00,0.40000,R,ugm-3,6.10000,R,ugm-3,6.70000,R,ugm-3,54.00000,R,ugm-3
06-01-2012,15:00,0.40000,R,ugm-3,6.70000,R,ugm-3,7.30000,R,ugm-3,48.00000,R,ugm-3
06-01-2012,16:00,0.40000,R,ugm-3,11.10000,R,ugm-3,11.70000,R,ugm-3,44.00000,R,ugm-3
06-01-2012,17:00,0.70000,R,ugm-3,8.20000,R,ugm-3,9.40000,R,ugm-3,46.00000,R,ugm-3
06-01-2012,18:00,0.40000,R,ugm-3,5.50000,R,ugm-3,6.10000,R,ugm-3,56.00000,R,ugm-3
06-01-2012,19:00,1.10000,R,ugm-3,7.70000,R,ugm-3,9.40000,R,ugm-3,46.00000,R,ugm-3
06-01-2012,20:00,0.70000,R,ugm-3,6.10000,R,ugm-3,7.30000,R,ugm-3,46.00000,R,ugm-3
06-01-2012,21:00,0.00000,R,ugm-3,6.70000,R,ugm-3,6.70000,R,ugm-3,46.00000,R,ugm-3
06-01-2012,22:00,0.40000,R,ugm-3,3.80000,R,ugm-3,4.40000,R,ugm-3,50.00000,R,ugm-3
06-01-2012,23:00,0.00000,R,ugm-3,3.80000,R,ugm-3,3.80000,R,ugm-3,50.00000,R,ugm-3
06-01-2012,24:00,0.70000,R,ugm-3,3.30000,R,ugm-3,4.40000,R,ugm-3,48.00000,R,ugm-3
07-01-2012,01:00,1.00000,R,ugm-3,3.60000,R,ugm-3,5.20000,R,ugm-3,56.00000,R,ugm-3
07-01-2012,02:00,0.50000,R,ugm-3,3.60000,R,ugm-3,4.40000,R,ugm-3,76.00000,R,ugm-3
07-01-2012,03:00,0.70000,R,ugm-3,3.30000,R,ugm-3,4.40000,R,ugm-3,74.00000,R,ugm-3
07-01-2012,04:00,0.00000,R,ugm-3,4.40000,R,ugm-3,4.40000,R,ugm-3,72.00000,R,ugm-3
07-01-2012,05:00,0.70000,R,ugm-3,3.30000,R,ugm-3,4.40000,R,ugm-3,68.00000,R,ugm-3
07-01-2012,06:00,0.70000,R,ugm-3,3.30000,R,ugm-3,4.40000,R,ugm-3,64.00000,R,ugm-3
07-01-2012,07:00,1.10000,R,ugm-3,3.30000,R,ugm-3,5.00000,R,ugm-3,62.00000,R,ugm-3
07-01-2012,08:00,0.70000,R,ugm-3,3.30000,R,ugm-3,4.40000,R,ugm-3,62.00000,R,ugm-3
07-01-2012,09:00,0.40000,R,ugm-3,3.80000,R,ugm-3,4.40000,R,ugm-3,62.00000,R,ugm-3
07-01-2012,10:00,0.70000,R,ugm-3,3.80000,R,ugm-3,5.00000,R,ugm-3,64.00000,R,ugm-3
07-01-2012,11:00,0.70000,R,ugm-3,3.30000,R,ugm-3,4.40000,R,ugm-3,66.00000,R,ugm-3
07-01-2012,12:00,0.40000,R,ugm-3,3.80000,R,ugm-3,4.40000,R,ugm-3,66.00000,R,ugm-3
07-01-2012,13:00,0.00000,R,ugm-3,4.40000,R,ugm-3,4.40000,R,ugm-3,66.00000,R,ugm-3
07-01-2012,14:00,0.70000,R,ugm-3,3.30000,R,ugm-3,4.40000,R,ugm-3,68.00000,R,ugm-3
07-01-2012,15:00,0.70000,R,ugm-3,3.80000,R,ugm-3,5.00000,R,ugm-3,66.00000,R,ugm-3
07-01-2012,16:00,0.40000,R,ugm-3,3.80000,R,ugm-3,4.40000,R,ugm-3,64.00000,R,ugm-3
07-01-2012,17:00,0.70000,R,ugm-3,3.30000,R,ugm-3,4.40000,R,ugm-3,64.00000,R,ugm-3
07-01-2012,18:00,0.70000,R,ugm-3,3.30000,R,ugm-3,4.40000,R,ugm-3,62.00000,R,ugm-3
07-01-2012,19:00,0.70000,R,ugm-3,3.30000,R,ugm-3,4.40000,R,ugm-3,62.00000,R,ugm-3
07-01-2012,20:00,0.40000,R,ugm-3,4.40000,R,ugm-3,5.00000,R,ugm-3,64.00000,R,ugm-3
07-01-2012,21:00,0.40000,R,ugm-3,4.40000,R,ugm-3,5.00000,R,ugm-3,64.00000,R,ugm-3
07-01-2012,22:00,1.10000,R,ugm-3,2.70000,R,ugm-3,4.40000,R,ugm-3,64.00000,R,ugm-3
07-01-2012,23:00,1.10000,R,ugm-3,2.70000,R,ugm-3,4.40000,R,ugm-3,64.00000,R,ugm-3
07-01-2012,24:00,0.00000,R,ugm-3,4.40000,R,ugm-3,4.40000,R,ugm-3,64.00000,R,ugm-3
08-01-2012,01:00,0.50000,R,ugm-3,3.60000,R,ugm-3,4.40000,R,ugm-3,64.00000,R,ugm-3
08-01-2012,02:00,1.50000,R,ugm-3,2.10000,R,ugm-3,4.40000,R,ugm-3,64.00000,R,ugm-3
08-01-2012,03:00,0.40000,R,ugm-3,3.80000,R,ugm-3,4.40000,R,ugm-3,62.00000,R,ugm-3
08-01-2012,04:00,0.40000,R,ugm-3,3.80000,R,ugm-3,4.40000,R,ugm-3,62.00000,R,ugm-3
08-01-2012,05:00,0.70000,R,ugm-3,3.30000,R,ugm-3,4.40000,R,ugm-3,60.00000,R,ugm-3
08-01-2012,06:00,0.00000,R,ugm-3,4.40000,R,ugm-3,4.40000,R,ugm-3,60.00000,R,ugm-3
08-01-2012,07:00,0.00000,R,ugm-3,3.80000,R,ugm-3,3.80000,R,ugm-3,60.00000,R,ugm-3
08-01-2012,08:00,0.40000,R,ugm-3,4.40000,R,ugm-3,5.00000,R,ugm-3,60.00000,R,ugm-3
08-01-2012,09:00,0.40000,R,ugm-3,4.40000,R,ugm-3,5.00000,R,ugm-3,60.00000,R,ugm-3
08-01-2012,10:00,1.10000,R,ugm-3,3.30000,R,ugm-3,5.00000,R,ugm-3,60.00000,R,ugm-3
08-01-2012,11:00,0.00000,R,ugm-3,4.40000,R,ugm-3,4.40000,R,ugm-3,62.00000,R,ugm-3
08-01-2012,12:00,0.40000,R,ugm-3,4.40000,R,ugm-3,5.00000,R,ugm-3,62.00000,R,ugm-3
08-01-2012,13:00,0.70000,R,ugm-3,7.10000,R,ugm-3,8.20000,R,ugm-3,62.00000,R,ugm-3
08-01-2012,14:00,0.40000,R,ugm-3,6.10000,R,ugm-3,6.70000,R,ugm-3,56.00000,R,ugm-3
08-01-2012,15:00,0.70000,R,ugm-3,5.50000,R,ugm-3,6.70000,R,ugm-3,50.00000,R,ugm-3
08-01-2012,16:00,0.40000,R,ugm-3,6.10000,R,ugm-3,6.70000,R,ugm-3,50.00000,R,ugm-3
08-01-2012,17:00,0.00000,R,ugm-3,5.50000,R,ugm-3,5.50000,R,ugm-3,50.00000,R,ugm-3
08-01-2012,18:00,0.00000,R,ugm-3,6.10000,R,ugm-3,6.10000,R,ugm-3,48.00000,R,ugm-3
08-01-2012,19:00,0.40000,R,ugm-3,5.00000,R,ugm-3,5.50000,R,ugm-3,48.00000,R,ugm-3
08-01-2012,20:00,0.00000,R,ugm-3,6.70000,R,ugm-3,6.70000,R,ugm-3,48.00000,R,ugm-3
08-01-2012,21:00,0.40000,R,ugm-3,5.00000,R,ugm-3,5.50000,R,ugm-3,48.00000,R,ugm-3
08-01-2012,22:00,0.40000,R,ugm-3,3.80000,R,ugm-3,4.40000,R,ugm-3,50.00000,R,ugm-3
08-01-2012,23:00,0.70000,R,ugm-3,4.40000,R,ugm-3,5.50000,R,ugm-3,52.00000,R,ugm-3
08-01-2012,24:00,0.70000,R,ugm-3,3.30000,R,ugm-3,4.40000,R,ugm-3,56.00000,R,ugm-3
09-01-2012,01:00,0.50000,R,ugm-3,2.30000,R,ugm-3,3.10000,R,ugm-3,58.00000,R,ugm-3
09-01-2012,02:00,1.00000,R,ugm-3,0.80000,R,ugm-3,2.30000,R,ugm-3,60.00000,R,ugm-3
09-01-2012,03:00,0.00000,R,ugm-3,2.30000,R,ugm-3,2.30000,R,ugm-3,60.00000,R,ugm-3
09-01-2012,04:00,0.40000,R,ugm-3,1.70000,R,ugm-3,2.30000,R,ugm-3,64.00000,R,ugm-3
09-01-2012,05:00,0.00000,R,ugm-3,2.30000,R,ugm-3,2.30000,R,ugm-3,66.00000,R,ugm-3
09-01-2012,06:00,0.40000,R,ugm-3,1.70000,R,ugm-3,2.30000,R,ugm-3,64.00000,R,ugm-3
09-01-2012,07:00,0.40000,R,ugm-3,1.70000,R,ugm-3,2.30000,R,ugm-3,64.00000,R,ugm-3
09-01-2012,08:00,0.70000,R,ugm-3,1.10000,R,ugm-3,2.30000,R,ugm-3,62.00000,R,ugm-3
09-01-2012,09:00,0.40000,R,ugm-3,1.70000,R,ugm-3,2.30000,R,ugm-3,62.00000,R,ugm-3
09-01-2012,10:00,1.10000,R,ugm-3,1.70000,R,ugm-3,3.40000,R,ugm-3,60.00000,R,ugm-3
09-01-2012,11:00,0.70000,R,ugm-3,2.70000,R,ugm-3,3.80000,R,ugm-3,58.00000,R,ugm-3
09-01-2012,12:00,0.00000,R,ugm-3,3.40000,R,ugm-3,3.40000,R,ugm-3,56.00000,R,ugm-3
09-01-2012,13:00,0.70000,R,ugm-3,2.70000,R,ugm-3,3.80000,R,ugm-3,64.00000,R,ugm-3
09-01-2012,14:00,0.40000,R,ugm-3,2.30000,R,ugm-3,2.90000,R,ugm-3,68.00000,R,ugm-3
09-01-2012,15:00,0.40000,R,ugm-3,2.90000,R,ugm-3,3.40000,R,ugm-3,66.00000,R,ugm-3
09-01-2012,16:00,0.00000,R,ugm-3,7.30000,R,ugm-3,7.30000,R,ugm-3,68.00000,R,ugm-3
09-01-2012,17:00,0.70000,R,ugm-3,18.70000,R,ugm-3,19.90000,R,ugm-3,60.00000,R,ugm-3
09-01-2012,18:00,0.70000,R,ugm-3,7.80000,R,ugm-3,9.00000,R,ugm-3,56.00000,R,ugm-3
09-01-2012,19:00,0.40000,R,ugm-3,5.50000,R,ugm-3,6.10000,R,ugm-3,52.00000,R,ugm-3
09-01-2012,20:00,0.40000,R,ugm-3,3.80000,R,ugm-3,4.40000,R,ugm-3,52.00000,R,ugm-3
09-01-2012,21:00,1.50000,R,ugm-3,2.10000,R,ugm-3,4.40000,R,ugm-3,52.00000,R,ugm-3
09-01-2012,22:00,0.70000,R,ugm-3,3.30000,R,ugm-3,4.40000,R,ugm-3,58.00000,R,ugm-3
09-01-2012,23:00,0.70000,R,ugm-3,2.70000,R,ugm-3,3.80000,R,ugm-3,56.00000,R,ugm-3
09-01-2012,24:00,0.70000,R,ugm-3,2.70000,R,ugm-3,3.80000,R,ugm-3,54.00000,R,ugm-3
10-01-2012,01:00,0.00000,R,ugm-3,3.60000,R,ugm-3,3.60000,R,ugm-3,58.00000,R,ugm-3
10-01-2012,02:00,1.50000,R,ugm-3,3.60000,R,ugm-3,5.90000,R,ugm-3,46.00000,R,ugm-3
10-01-2012,03:00,0.40000,R,ugm-3,6.70000,R,ugm-3,7.30000,R,ugm-3,42.00000,R,ugm-3
10-01-2012,04:00,1.50000,R,ugm-3,14.30000,R,ugm-3,16.60000,R,ugm-3,32.00000,R,ugm-3
10-01-2012,05:00,1.10000,R,ugm-3,23.30000,R,ugm-3,25.10000,R,ugm-3,24.00000,R,ugm-3
10-01-2012,06:00,1.50000,R,ugm-3,20.50000,R,ugm-3,22.80000,R,ugm-3,24.00000,R,ugm-3
10-01-2012,07:00,0.70000,R,ugm-3,10.50000,R,ugm-3,11.70000,R,ugm-3,36.00000,R,ugm-3
10-01-2012,08:00,0.40000,R,ugm-3,3.80000,R,ugm-3,4.40000,R,ugm-3,58.00000,R,ugm-3
10-01-2012,09:00,0.40000,R,ugm-3,3.80000,R,ugm-3,4.40000,R,ugm-3,58.00000,R,ugm-3
10-01-2012,10:00,1.10000,R,ugm-3,4.40000,R,ugm-3,6.10000,R,ugm-3,56.00000,R,ugm-3
10-01-2012,11:00,0.70000,R,ugm-3,4.40000,R,ugm-3,5.50000,R,ugm-3,58.00000,R,ugm-3
10-01-2012,12:00,1.10000,R,ugm-3,5.00000,R,ugm-3,6.70000,R,ugm-3,60.00000,R,ugm-3
10-01-2012,13:00,0.70000,R,ugm-3,3.30000,R,ugm-3,4.40000,R,ugm-3,64.00000,R,ugm-3
10-01-2012,14:00,1.10000,R,ugm-3,2.70000,R,ugm-3,4.40000,R,ugm-3,64.00000,R,ugm-3
10-01-2012,15:00,1.10000,R,ugm-3,2.70000,R,ugm-3,4.40000,R,ugm-3,64.00000,R,ugm-3
10-01-2012,16:00,0.40000,R,ugm-3,6.10000,R,ugm-3,6.70000,R,ugm-3,56.00000,R,ugm-3
10-01-2012,17:00,0.40000,R,ugm-3,7.70000,R,ugm-3,8.20000,R,ugm-3,48.00000,R,ugm-3
10-01-2012,18:00,0.70000,R,ugm-3,7.70000,R,ugm-3,8.80000,R,ugm-3,44.00000,R,ugm-3
10-01-2012,19:00,0.70000,R,ugm-3,5.50000,R,ugm-3,6.70000,R,ugm-3,48.00000,R,ugm-3
10-01-2012,20:00,0.40000,R,ugm-3,3.80000,R,ugm-3,4.40000,R,ugm-3,54.00000,R,ugm-3
10-01-2012,21:00,0.70000,R,ugm-3,2.30000,R,ugm-3,3.40000,R,ugm-3,58.00000,R,ugm-3
10-01-2012,22:00,1.10000,R,ugm-3,3.30000,R,ugm-3,5.00000,R,ugm-3,58.00000,R,ugm-3
10-01-2012,23:00,0.40000,R,ugm-3,2.30000,R,ugm-3,2.90000,R,ugm-3,58.00000,R,ugm-3
10-01-2012,24:00,0.70000,R,ugm-3,2.70000,R,ugm-3,3.80000,R,ugm-3,58.00000,R,ugm-3
11-01-2012,01:00,0.00000,R,ugm-3,2.30000,R,ugm-3,2.30000,R,ugm-3,54.00000,R,ugm-3
11-01-2012,02:00,1.50000,R,ugm-3,2.10000,R,ugm-3,4.40000,R,ugm-3,50.00000,R,ugm-3
11-01-2012,03:00,0.40000,R,ugm-3,2.30000,R,ugm-3,2.90000,R,ugm-3,50.00000,R,ugm-3
11-01-2012,04:00,0.70000,R,ugm-3,2.30000,R,ugm-3,3.40000,R,ugm-3,48.00000,R,ugm-3
11-01-2012,05:00,0.40000,R,ugm-3,2.30000,R,ugm-3,2.90000,R,ugm-3,48.00000,R,ugm-3
11-01-2012,06:00,0.00000,R,ugm-3,2.30000,R,ugm-3,2.30000,R,ugm-3,46.00000,R,ugm-3
11-01-2012,07:00,0.00000,R,ugm-3,2.90000,R,ugm-3,2.90000,R,ugm-3,48.00000,R,ugm-3
11-01-2012,08:00,0.70000,R,ugm-3,2.70000,R,ugm-3,3.80000,R,ugm-3,44.00000,R,ugm-3
11-01-2012,09:00,0.40000,R,ugm-3,4.40000,R,ugm-3,5.00000,R,ugm-3,40.00000,R,ugm-3
11-01-2012,10:00,1.10000,R,ugm-3,3.30000,R,ugm-3,5.00000,R,ugm-3,42.00000,R,ugm-3
11-01-2012,11:00,1.50000,R,ugm-3,4.40000,R,ugm-3,6.70000,R,ugm-3,42.00000,R,ugm-3
11-01-2012,12:00,1.50000,R,ugm-3,5.90000,R,ugm-3,8.20000,R,ugm-3,38.00000,R,ugm-3
11-01-2012,13:00,1.50000,R,ugm-3,6.50000,R,ugm-3,8.80000,R,ugm-3,40.00000,R,ugm-3
11-01-2012,14:00,1.10000,R,ugm-3,5.50000,R,ugm-3,7.30000,R,ugm-3,44.00000,R,ugm-3
11-01-2012,15:00,0.00000,R,ugm-3,6.70000,R,ugm-3,6.70000,R,ugm-3,46.00000,R,ugm-3
11-01-2012,16:00,0.70000,R,ugm-3,3.80000,R,ugm-3,5.00000,R,ugm-3,48.00000,R,ugm-3
11-01-2012,17:00,0.00000,R,ugm-3,3.80000,R,ugm-3,3.80000,R,ugm-3,56.00000,R,ugm-3
11-01-2012,18:00,1.10000,R,ugm-3,5.00000,R,ugm-3,6.70000,R,ugm-3,52.00000,R,ugm-3
11-01-2012,19:00,0.70000,R,ugm-3,5.50000,R,ugm-3,6.70000,R,ugm-3,48.00000,R,ugm-3
11-01-2012,20:00,0.40000,R,ugm-3,3.80000,R,ugm-3,4.40000,R,ugm-3,56.00000,R,ugm-3
11-01-2012,21:00,1.10000,R,ugm-3,2.10000,R,ugm-3,3.80000,R,ugm-3,56.00000,R,ugm-3
11-01-2012,22:00,0.70000,R,ugm-3,2.30000,R,ugm-3,3.40000,R,ugm-3,58.00000,R,ugm-3
11-01-2012,23:00,0.00000,R,ugm-3,2.90000,R,ugm-3,2.90000,R,ugm-3,58.00000,R,ugm-3
11-01-2012,24:00,0.40000,R,ugm-3,1.70000,R,ugm-3,2.30000,R,ugm-3,60.00000,R,ugm-3
12-01-2012,01:00,0.00000,R,ugm-3,2.30000,R,ugm-3,2.30000,R,ugm-3,60.00000,R,ugm-3
12-01-2012,02:00,1.00000,R,ugm-3,1.50000,R,ugm-3,3.10000,R,ugm-3,60.00000,R,ugm-3
12-01-2012,03:00,0.40000,R,ugm-3,1.70000,R,ugm-3,2.30000,R,ugm-3,58.00000,R,ugm-3
12-01-2012,04:00,0.40000,R,ugm-3,2.30000,R,ugm-3,2.90000,R,ugm-3,58.00000,R,ugm-3
12-01-2012,05:00,1.10000,R,ugm-3,0.60000,R,ugm-3,2.30000,R,ugm-3,58.00000,R,ugm-3
12-01-2012,06:00,0.00000,R,ugm-3,2.30000,R,ugm-3,2.30000,R,ugm-3,60.00000,R,ugm-3
12-01-2012,07:00,1.10000,R,ugm-3,2.10000,R,ugm-3,3.80000,R,ugm-3,58.00000,R,ugm-3
12-01-2012,08:00,0.70000,R,ugm-3,1.10000,R,ugm-3,2.30000,R,ugm-3,66.00000,R,ugm-3
12-01-2012,09:00,0.70000,R,ugm-3,1.10000,R,ugm-3,2.30000,R,ugm-3,72.00000,R,ugm-3
12-01-2012,10:00,0.40000,R,ugm-3,1.70000,R,ugm-3,2.30000,R,ugm-3,70.00000,R,ugm-3
12-01-2012,11:00,1.10000,R,ugm-3,4.40000,R,ugm-3,6.10000,R,ugm-3,66.00000,R,ugm-3
12-01-2012,12:00,1.50000,R,ugm-3,8.80000,R,ugm-3,11.10000,R,ugm-3,58.00000,R,ugm-3
12-01-2012,13:00,1.50000,R,ugm-3,7.30000,R,ugm-3,9.60000,R,ugm-3,58.00000,R,ugm-3
12-01-2012,14:00,1.90000,R,ugm-3,5.50000,R,ugm-3,8.40000,R,ugm-3,58.00000,R,ugm-3
12-01-2012,15:00,0.40000,R,ugm-3,10.10000,R,ugm-3,10.70000,R,ugm-3,58.00000,R,ugm-3
12-01-2012,16:00,0.70000,R,ugm-3,18.90000,R,ugm-3,20.10000,R,ugm-3,56.00000,R,ugm-3
12-01-2012,17:00,1.10000,R,ugm-3,7.30000,R,ugm-3,9.00000,R,ugm-3,48.00000,R,ugm-3
12-01-2012,18:00,1.10000,R,ugm-3,5.00000,R,ugm-3,6.70000,R,ugm-3,50.00000,R,ugm-3
12-01-2012,19:00,1.10000,R,ugm-3,3.80000,R,ugm-3,5.50000,R,ugm-3,54.00000,R,ugm-3
12-01-2012,20:00,0.70000,R,ugm-3,3.30000,R,ugm-3,4.40000,R,ugm-3,54.00000,R,ugm-3
12-01-2012,21:00,0.40000,R,ugm-3,4.40000,R,ugm-3,5.00000,R,ugm-3,56.00000,R,ugm-3
12-01-2012,22:00,0.40000,R,ugm-3,2.90000,R,ugm-3,3.40000,R,ugm-3,58.00000,R,ugm-3
12-01-2012,23:00,0.70000,R,ugm-3,3.30000,R,ugm-3,4.40000,R,ugm-3,58.00000,R,ugm-3
12-01-2012,24:00,0.40000,R,ugm-3,3.30000,R,ugm-3,3.80000,R,ugm-3,56.00000,R,ugm-3
13-01-2012,01:00,0.50000,R,ugm-3,2.30000,R,ugm-3,3.10000,R,ugm-3,56.00000,R,ugm-3